sat.trackr.live / text

‹ back to catalog

FLOCK 4G-20

NORAD 62636 · 2025-009AD

PAYLOAD ACTIVE UNKNOWN

§ Identity

Operator
Country
US
Launch date
2025-01-14
Launch site
AFWTR
Launch vehicle
Mass (kg)
RCS (m²)

Purposes: earth_obs

External: N2YO · Heavens-Above · Gunter

§ Orbital elements

Epoch: 2026-05-25T04:35:51.328320Z

Period
93.00 min
Inclination
97.3880°
Eccentricity
0.0001742
Mean motion
15.48334949 rev/d
Perigee alt
420.4 km
Apogee alt
422.8 km
Semi-major
6,799.7 km
B*
1.8123e-3
RAAN
229.0138°
Arg perigee
143.4896°
Mean anomaly
216.6474°
Rev number
7,555

§ Raw data

FLOCK 4G-201 62636U 25009AD  26145.19156630  .00096774  00000+0  18123-2 0  99972 62636  97.3880 229.0138 0001742 143.4896 216.6474 15.48334949 75556

JSON: /api/v1/satellites/62636 · /tle

For live sub-satellite position, see the globe view (requires WebGL).

§ Visibility from observer

Set your observer location to see the next 7 days of passes ≥ 10°. The values pass through the URL so the page stays shareable.

No JS? Fill the form by hand. The geolocation button needs JavaScript.